Date String (YYYY-MM-DD hh:mm:ss) UTC,Instrument flags,Ambient pressure (hPa),Sample flow (lpm),Bypass flow (lpm),Sample temperature (°C),Ambient temperature (°C),ASC tube jacket temperature (°C),LED temperature (°C),Box temperature (°C),Sample RH (%),Span deviation,Mass concentration (μg/m³),Mass concentration (μg/m³),Mass concentration (μg/m³)
DateTimeUTC,F1_M11,P_M11,Q1_M11,Q2_M11,T1_M11,T2_M11,T3_M11,T4_M11,T5_M11,U1_M11,ZSPAN_M11,X0_M11,X2_M11,X1_M11
2022-07-03 11:00:00,,0825.4,5.00,0.00,30.1,29.0,00.0,38.8,32.0,24.0,0000.0,0010.07,0004.66,0003.92
2022-07-03 11:01:00,,0825.3,5.00,0.00,30.1,28.1,00.0,38.7,31.9,23.9,0000.0,0009.66,0004.61,0003.90
2022-07-03 11:02:00,,0825.4,5.00,0.00,30.0,27.6,00.0,38.7,31.7,23.9,0000.0,0009.56,0004.55,0003.88
2022-07-03 11:03:00,,0825.3,5.01,0.00,29.9,27.5,00.0,38.7,31.6,24.1,0000.0,0008.86,0004.51,0003.86
2022-07-03 11:04:00,,0825.4,4.98,0.00,29.8,27.5,00.0,38.7,31.5,24.0,0000.0,0008.61,0004.52,0003.85
2022-07-03 11:05:00,,0825.4,5.00,0.00,29.8,27.6,00.0,38.6,31.5,24.0,0000.0,0008.82,0004.52,0003.82
2022-07-03 11:06:00,,0825.4,5.00,0.00,29.8,27.7,00.0,38.6,31.5,24.1,0000.0,0008.95,0004.48,0003.81
2022-07-03 11:07:00,,0825.4,5.00,0.00,29.8,27.9,00.0,38.6,31.5,24.2,0000.0,0008.91,0004.45,0003.79
2022-07-03 11:08:00,,0825.4,5.00,0.00,29.8,28.0,00.0,38.6,31.6,24.0,0000.0,0008.96,0004.45,0003.78
2022-07-03 11:09:00,,0825.4,4.99,0.00,29.8,28.2,00.0,38.6,31.6,24.1,0000.0,0009.32,0004.44,0003.76
2022-07-03 11:10:00,,0825.4,5.01,0.00,29.8,28.3,00.0,38.6,31.6,24.2,0000.0,0009.50,0004.42,0003.75
2022-07-03 11:11:00,,0825.5,5.01,0.00,29.8,28.4,00.0,38.6,31.6,24.6,0000.0,0009.58,0004.45,0003.75
2022-07-03 11:12:00,,0825.4,5.00,0.00,29.8,28.4,00.0,38.6,31.7,24.7,0000.0,0009.96,0004.42,0003.75
2022-07-03 11:13:00,,0825.4,5.00,0.00,29.8,28.5,00.0,38.6,31.7,24.6,0000.0,0010.70,0004.46,0003.75
2022-07-03 11:14:00,,0825.5,5.00,0.00,29.8,28.6,00.0,38.6,31.7,24.7,0000.0,0011.21,0004.51,0003.75
2022-07-03 11:15:00,,0825.4,4.99,0.00,29.8,28.6,00.0,38.6,31.7,24.8,0000.0,0011.34,0004.53,0003.75
2022-07-03 11:16:00,,0825.4,5.00,0.00,29.8,28.7,00.0,38.6,31.7,24.8,0000.0,0010.94,0004.49,0003.75
2022-07-03 11:17:00,,0825.4,5.00,0.00,29.9,28.7,00.0,38.6,31.7,24.9,0000.0,0010.58,0004.49,0003.76
2022-07-03 11:18:00,,0825.4,5.00,0.00,29.9,28.8,00.0,38.6,31.8,24.9,0000.0,0010.63,0004.51,0003.76
2022-07-03 11:19:00,,0825.4,4.98,0.00,29.9,28.8,00.0,38.7,31.8,24.7,0000.0,0010.60,0004.51,0003.77
2022-07-03 11:20:00,,0825.4,5.01,0.00,29.9,28.8,00.0,38.7,31.9,24.7,0000.0,0010.39,0004.54,0003.78
2022-07-03 11:21:00,,0825.4,5.00,0.00,29.9,28.9,00.0,38.7,31.9,24.6,0000.0,0010.12,0004.58,0003.80
2022-07-03 11:22:00,,0825.4,5.00,0.00,30.0,28.9,00.0,38.7,31.9,24.6,0000.0,0010.04,0004.57,0003.80
2022-07-03 11:23:00,,0825.4,4.99,0.00,30.0,28.9,00.0,38.7,31.9,24.7,0000.0,0009.91,0004.61,0003.81
2022-07-03 11:24:00,,0825.4,4.99,0.00,30.0,28.9,00.0,38.7,31.9,24.7,0000.0,0009.26,0004.58,0003.82
2022-07-03 11:25:00,,0825.4,5.00,0.00,30.0,29.0,00.0,38.7,31.9,24.6,0000.0,0008.56,0004.54,0003.83
2022-07-03 11:26:00,,0825.4,5.00,0.00,30.0,29.0,00.0,38.8,32.0,24.4,0000.0,0008.40,0004.53,0003.84
2022-07-03 11:27:00,,0825.5,5.00,0.00,30.1,29.0,00.0,38.8,32.0,24.5,0000.0,0008.43,0004.55,0003.84
2022-07-03 11:28:00,,0825.5,5.01,0.00,30.1,29.0,00.0,38.8,32.0,24.5,0000.0,0008.52,0004.57,0003.85
2022-07-03 11:29:00,,0825.5,5.00,0.00,30.1,29.1,00.0,38.8,32.0,24.5,0000.0,0008.48,0004.59,0003.87
2022-07-03 11:30:00,,0825.5,5.00,0.00,30.1,29.1,00.0,38.8,32.0,24.6,0000.0,0008.43,0004.60,0003.89
2022-07-03 11:31:00,,0825.5,5.00,0.00,30.1,28.9,00.0,38.8,32.0,24.7,0000.0,0008.53,0004.64,0003.91
2022-07-03 11:32:00,,0825.6,5.00,0.00,30.1,28.1,00.0,38.8,31.9,24.6,0000.0,0008.78,0004.67,0003.91
2022-07-03 11:33:00,,0825.5,5.00,0.00,30.0,27.5,00.0,38.7,31.7,24.5,0000.0,0008.84,0004.70,0003.92
2022-07-03 11:34:00,,0825.5,5.00,0.00,29.9,27.4,00.0,38.7,31.6,24.9,0000.0,0008.91,0004.73,0003.93
2022-07-03 11:35:00,,0825.5,5.00,0.00,29.8,27.5,00.0,38.7,31.5,25.1,0000.0,0008.87,0004.74,0003.93
2022-07-03 11:36:00,,0825.5,5.00,0.00,29.8,27.6,00.0,38.7,31.5,25.3,0000.0,0009.01,0004.75,0003.94
2022-07-03 11:37:00,,0825.5,5.00,0.00,29.8,27.7,00.0,38.6,31.5,25.5,0000.0,0009.01,0004.76,0003.95
2022-07-03 11:38:00,,0825.5,5.00,0.00,29.7,27.8,00.0,38.6,31.5,25.4,0000.0,0008.98,0004.75,0003.95
2022-07-03 11:39:00,,0825.4,4.99,0.00,29.7,28.0,00.0,38.6,31.5,25.4,0000.0,0008.92,0004.74,0003.95
2022-07-03 11:40:00,,0825.4,5.00,0.00,29.7,28.1,00.0,38.6,31.6,25.4,0000.0,0009.13,0004.77,0003.96
2022-07-03 11:41:00,,0825.4,5.00,0.00,29.7,28.2,00.0,38.6,31.6,25.3,0000.0,0009.59,0004.79,0003.96
2022-07-03 11:42:00,,0825.4,5.01,0.00,29.7,28.3,00.0,38.6,31.6,25.3,0000.0,0009.57,0004.77,0003.95
2022-07-03 11:43:00,,0825.4,5.00,0.00,29.8,28.4,00.0,38.6,31.6,25.3,0000.0,0009.45,0004.75,0003.95
2022-07-03 11:44:00,,0825.4,4.99,0.00,29.8,28.4,00.0,38.6,31.6,25.3,0000.0,0009.44,0004.72,0003.94
2022-07-03 11:45:00,,0825.4,5.01,0.00,29.8,28.5,00.0,38.6,31.7,25.2,0000.0,0009.39,0004.70,0003.94
2022-07-03 11:46:00,,0825.4,5.01,0.00,29.8,28.6,00.0,38.6,31.7,25.1,0000.0,0009.26,0004.70,0003.94
2022-07-03 11:47:00,,0825.5,5.02,0.00,29.8,28.6,00.0,38.6,31.7,25.2,0000.0,0009.13,0004.73,0003.95
2022-07-03 11:48:00,,0825.5,5.00,0.00,29.8,28.6,00.0,38.6,31.7,25.0,0000.0,0009.05,0004.71,0003.95
2022-07-03 11:49:00,,0825.5,5.00,0.00,29.8,28.7,00.0,38.6,31.7,24.9,0000.0,0009.44,0004.78,0003.97
2022-07-03 11:50:00,,0825.5,5.01,0.00,29.8,28.7,00.0,38.6,31.8,25.0,0000.0,0009.41,0004.79,0003.97
2022-07-03 11:51:00,,0825.6,5.00,0.00,29.9,28.8,00.0,38.6,31.8,25.0,0000.0,0009.31,0004.78,0003.97
2022-07-03 11:52:00,,0825.6,5.00,0.00,29.9,28.8,00.0,38.7,31.8,25.0,0000.0,0008.96,0004.81,0003.97
2022-07-03 11:53:00,,0825.6,5.00,0.00,29.9,28.8,00.0,38.7,31.8,24.9,0000.0,0008.85,0004.80,0003.99
2022-07-03 11:54:00,,0825.6,5.00,0.00,29.9,28.8,00.0,38.7,31.8,24.5,0000.0,0009.15,0004.79,0003.99
2022-07-03 11:55:00,,0825.6,4.99,0.00,29.9,28.9,00.0,38.7,31.9,24.4,0000.0,0009.49,0004.77,0004.00
2022-07-03 11:56:00,,0825.6,5.00,0.00,30.0,28.9,00.0,38.7,31.9,24.1,0000.0,0009.53,0004.77,0004.01
2022-07-03 11:57:00,,0825.6,5.00,0.00,30.0,28.9,00.0,38.7,31.9,24.1,0000.0,0009.64,0004.79,0004.01
2022-07-03 11:58:00,,0825.6,5.01,0.00,30.0,28.9,00.0,38.7,31.9,24.3,0000.0,0009.68,0004.79,0004.00
2022-07-03 11:59:00,,0825.6,5.00,0.00,30.0,29.0,00.0,38.8,31.9,23.7,0000.0,0009.71,0004.78,0004.00
